Dewpoint
60 61 62 63 64 65 64 65 65 66 66 66 66 66 66 66 66 65 66 66 66 66 67 65 63 62 62 62 62 61 61 60 57 54 53 53 52 56 61 61 62 63 61 61 61 60 59 59 61 64 66 67 66 66 66 65 65 65 64 65 63 63 63
62 62 63 63 63 63 64 65 64 65 65 66 66 66 66 66 66 65 65 65 65 65 67 66 65 64 62 61 60 59 60 60 59 57 54 53 54 55 57 59 59 59 61 60 61 61 58 58 59 62 64 66 67 66 66 66 66 65 65 65 64 63 63
62 62 62 62 63 63 64 64 64 64 64 65 65 65 65 65 66 66 65 65 64 64 66 65 66 65 63 62 61 60 59 59 60 59 56 55 55 56 57 58 58 58 59 59 59 60 59 59 59 62 63 64 63 65 66 66 66 66 66 65 65 64 63
57 60 62 62 63 64 64 64 64 64 64 65 65 65 65 65 65 66 65 65 64 65 65 64 64 65 65 64 62 61 61 59 59 59 58 57 58 57 58 57 57 58 58 59 59 60 59 58 58 60 63 65 65 65 66 67 66 66 66 66 65 64 64
58 58 59 61 62 63 64 64 64 64 64 64 65 65 65 65 65 65 66 65 65 64 64 64 64 64 65 65 64 62 61 61 60 59 58 57 58 59 58 58 57 57 58 58 59 61 59 59 60 60 62 64 65 65 66 66 67 66 66 66 66 65 64
57 57 58 58 60 62 63 63 64 63 63 63 63 64 65 65 65 65 65 65 65 65 64 64 64 64 65 65 65 63 62 61 61 60 58 57 57 58 58 60 59 57 57 58 58 60 60 60 61 59 61 64 63 64 64 66 65 66 66 66 66 66 65
54 55 56 57 58 59 62 63 63 64 63 63 63 63 64 65 65 65 65 65 65 65 65 64 64 65 65 66 65 64 63 62 61 60 59 59 57 58 59 59 59 59 58 58 57 57 58 58 59 59 61 62 61 61 62 65 66 65 66 66 66 66 65
55 55 56 57 57 57 58 60 62 63 64 64 64 64 64 64 64 64 64 65 64 64 65 64 64 65 65 65 65 64 64 63 61 60 59 59 59 58 60 59 59 60 59 58 58 57 57 57 58 59 61 60 59 59 60 65 65 65 65 66 66 66 66
56 56 57 57 56 57 57 58 59 62 63 64 64 64 64 64 64 64 64 64 64 65 65 64 64 64 64 64 64 64 63 64 63 61 60 59 58 59 60 60 60 59 59 58 58 58 58 58 57 58 60 59 58 58 59 62 64 64 66 65 66 67 66
51 52 53 54 54 55 57 57 57 58 60 63 64 64 64 64 64 64 64 64 64 64 64 64 64 64 64 64 64 63 63 63 63 62 61 60 60 59 59 60 60 60 60 59 58 58 58 59 58 58 59 58 58 55 58 60 62 63 64 65 65 66 67
51 51 53 54 55 56 55 57 57 57 58 59 63 64 65 65 64 65 64 64 64 64 64 64 64 64 64 63 63 63 63 63 63 62 62 61 61 60 59 59 60 60 60 59 58 58 58 59 59 59 59 60 60 57 58 58 59 63 63 64 65 65 66
51 52 52 53 54 54 53 53 54 55 56 57 60 62 65 65 64 64 64 64 64 63 63 64 64 64 64 63 63 63 63 63 62 62 62 62 62 62 61 60 60 59 60 59 59 58 59 59 60 60 59 60 62 59 59 60 57 60 63 62 64 65 66
51 51 51 51 51 52 53 54 54 55 56 57 57 59 62 64 64 64 64 63 63 63 63 63 63 64 64 63 63 63 63 63 62 62 62 62 63 62 62 61 61 61 60 60 59 59 58 59 60 61 60 60 61 62 61 61 58 57 62 63 63 64 65
50 50 51 51 52 52 52 54 53 53 54 55 56 57 58 61 64 64 64 64 63 63 62 63 63 63 64 64 64 64 64 64 63 63 64 63 63 63 62 62 62 62 62 61 60 60 59 59 60 61 61 60 60 61 61 61 60 59 59 62 62 63 64
50 51 50 51 51 51 51 52 53 54 54 54 55 55 55 56 61 62 63 63 63 63 63 62 63 64 64 64 65 65 65 65 64 64 64 64 64 64 63 62 62 62 63 63 62 60 60 59 60 60 61 61 60 60 61 61 60 59 58 58 61 60 63
50 50 50 50 50 50 51 51 53 53 53 54 55 55 55 56 56 59 62 62 62 62 62 63 64 65 65 65 65 65 64 64 64 64 64 64 64 63 63 63 62 61 62 62 62 62 61 60 59 60 60 61 61 60 60 61 60 59 58 58 60 60 62
49 49 49 49 49 50 50 51 52 52 52 52 53 54 55 55 55 56 58 61 61 61 62 62 63 63 63 64 63 63 63 63 62 62 63 64 64 64 63 63 62 62 61 60 60 61 62 62 60 59 60 60 61 61 61 60 59 58 58 57 59 60 62
48 48 49 49 49 49 50 50 51 51 52 52 53 54 55 56 56 56 56 59 60 61 61 61 61 62 63 63 63 63 63 62 62 62 64 64 64 64 63 63 63 62 62 61 60 59 59 60 62 61 60 60 61 61 61 61 61 60 59 58 59 60 62
47 48 48 48 49 49 49 50 50 51 51 51 51 52 52 53 55 55 55 56 59 60 61 61 61 61 62 63 63 62 62 63 63 63 63 63 63 64 63 63 63 63 62 61 60 60 59 59 59 61 61 60 60 61 61 61 61 61 60 60 60 59 61
47 47 47 48 48 49 49 49 50 50 51 51 51 51 52 53 54 54 54 54 55 58 61 61 61 61 61 62 62 62 62 63 63 63 63 63 62 63 64 64 63 63 62 62 61 60 60 59 59 59 60 60 60 60 61 61 61 61 61 60 60 61 61
47 47 48 48 49 49 49 49 50 50 51 51 51 51 51 51 51 53 54 55 55 56 57 60 61 61 61 61 62 62 62 62 62 63 63 63 63 63 64 65 64 63 62 63 62 61 61 60 59 58 59 59 60 60 60 61 61 60 60 60 60 61 60
47 48 49 49 49 49 49 49 50 50 50 50 52 52 52 52 52 52 52 53 53 54 55 58 60 61 61 61 62 62 62 62 62 62 62 62 63 63 64 65 65 64 63 64 61 60 60 60 60 59 58 59 59 60 60 60 61 60 60 60 60 60 60
47 48 49 49 49 50 50 50 50 50 50 50 50 51 51 51 51 51 52 52 53 54 54 55 57 57 57 61 61 62 62 62 62 62 62 62 62 63 64 65 65 65 62 61 59 56 55 55 57 59 59 58 59 59 60 60 60 60 60 59 59 60 61
48 48 49 49 50 50 50 51 51 51 50 50 50 51 51 51 51 51 51 51 52 53 54 54 51 49 50 52 59 61 62 62 62 62 63 63 63 63 64 64 65 65 63 61 60 55 53 53 52 53 54 56 58 59 60 60 60 60 60 60 60 60 61
48 48 49 49 50 51 52 52 51 51 51 51 51 51 51 51 51 51 51 51 51 52 53 53 47 47 46 48 51 59 61 62 62 62 63 63 63 63 63 64 64 65 64 64 63 61 57 53 51 51 50 51 51 53 55 59 60 61 61 60 60 60 61
48 48 49 51 52 53 54 54 53 52 51 52 52 51 51 51 51 51 51 50 51 52 52 49 46 46 45 45 46 51 58 61 61 62 63 63 63 63 62 63 63 64 64 63 64 63 62 61 54 51 52 51 51 50 50 50 53 61 62 62 61 62 62
48 49 51 52 53 53 54 54 53 53 53 53 52 52 52 51 51 51 50 50 51 52 52 51 46 46 45 45 45 46 55 58 60 61 62 63 63 63 63 62 63 63 63 64 64 63 63 62 61 59 58 58 58 58 53 49 50 51 58 63 63 62 62
49 50 50 51 53 53 54 54 53 53 53 53 52 52 52 51 51 51 50 50 50 51 52 49 46 45 45 45 45 46 54 56 58 60 61 62 63 63 62 63 63 62 62 63 63 63 63 62 61 61 60 60 60 60 60 60 57 55 58 62 63 63 63
48 49 50 51 53 53 54 54 54 53 53 52 52 52 51 51 50 50 50 50 50 50 51 46 45 45 45 44 45 52 54 55 57 58 60 61 61 61 62 62 62 61 61 62 60 54 58 62 62 61 60 60 60 60 61 60 54 53 59 60 62 62 63
47 48 49 50 52 52 51 52 54 54 53 52 51 51 50 50 51 50 50 50 50 50 50 48 45 44 45 45 46 53 55 55 56 57 58 59 61 62 62 61 61 62 62 62 58 52 51 55 62 62 61 60 60 60 59 60 54 50 50 50 52 53 52
47 48 48 50 52 51 50 50 50 53 54 53 52 51 51 51 51 51 51 51 51 51 51 50 46 45 45 45 49 54 55 56 56 57 57 58 59 61 61 61 62 61 61 62 56 51 50 54 61 62 61 61 60 60 60 60 60 59 51 48 49 50 50
47 48 48 50 52 50 49 50 49 50 51 52 54 54 53 52 53 53 53 53 55 54 54 52 47 45 45 46 48 53 56 57 56 57 57 57 59 60 60 60 60 59 60 58 49 48 48 53 60 61 61 61 60 60 60 61 60 60 60 58 57 55 54
46 47 48 50 51 49 49 48 47 48 49 50 50 51 52 53 53 53 53 54 55 55 55 56 54 48 46 46 46 53 55 56 57 57 57 57 58 59 60 60 59 52 50 51 52 50 47 45 57 61 61 61 61 60 61 61 61 61 60 60 60 59 59
46 46 48 50 49 47 47 46 46 46 47 48 47 47 47 48 49 51 52 53 54 55 56 56 55 49 48 47 46 47 53 55 56 57 58 57 58 58 59 60 60 55 50 50 51 49 47 46 49 60 61 61 61 60 58 61 61 58 60 60 60 60 60
46 47 47 50 46 45 45 45 45 45 45 46 45 45 45 46 46 46 48 49 49 50 51 51 52 50 48 45 44 44 51 55 55 57 57 58 58 59 59 59 60 56 49 49 50 50 48 47 46 57 61 55 53 51 59 61 61 61 60 60 60 59 60
45 46 47 48 45 44 43 43 43 44 44 44 44 44 44 44 44 45 45 46 46 47 48 49 47 49 43 42 43 42 43 48 47 55 56 57 58 59 59 59 59 56 48 48 48 47 47 46 46 50 49 48 48 48 52 59 60 60 60 59 59 59 59
44 44 46 46 44 43 42 42 42 42 42 43 43 43 43 43 43 43 43 44 44 45 46 47 46 44 43 41 40 41 41 41 42 49 54 56 57 58 58 59 57 51 48 47 46 47 47 45 49 46 45 46 46 47 55 58 58 59 58 58 58 59 59